When you browse on this site, cookies collect data to enhance your experience and personalize the content and advertising you see.
Visit our Privacy Policy to learn more. By continuing to use the site, you agree to this use of cookies and data.
  • In Deutschland
  • Länderverzeichnis
  • Für 7 Tage
  • Wassertemperatur
  • Wetterkarte
  • Widgets
  • user-avatar
    Anmelden

    Stündliche Wetter Novaya Bashkarka

    Heute, 26 Februar, Mittwoch

    Zeit Temperatur Niederschläge Wind Luftdruck Luftfeuchtigkeit
    00:00 -11°C° 0 mm 4 m/S 734 mmHg 94%
    01:00 -11°C° 0 mm 4 m/S 734 mmHg 94%
    02:00 -10°C° 0 mm 4 m/S 733 mmHg 93%
    03:00 -10°C° 0 mm 4 m/S 733 mmHg 93%
    04:00 -10°C° 0 mm 4 m/S 732 mmHg 92%
    05:00 -10°C° 0 mm 4 m/S 732 mmHg 93%
    06:00 -10°C° 0 mm 4 m/S 731 mmHg 93%
    07:00 -11°C° 0 mm 4 m/S 730 mmHg 93%
    08:00 -10°C° 0 mm 4 m/S 729 mmHg 93%
    09:00 -10°C° 0 mm 4 m/S 729 mmHg 93%
    10:00 -9°C° 0 mm 4 m/S 728 mmHg 92%
    11:00 -9°C° 0.1 mm 4 m/S 728 mmHg 92%
    12:00 -8°C° 0.1 mm 4 m/S 727 mmHg 93%
    13:00 -8°C° 0.1 mm 4 m/S 726 mmHg 93%
    14:00 -7°C° 0.6 mm 3 m/S 726 mmHg 93%
    15:00 -6°C° 0.6 mm 3 m/S 725 mmHg 94%
    16:00 -6°C° 0.6 mm 3 m/S 725 mmHg 95%
    17:00 -6°C° 0.8 mm 2 m/S 725 mmHg 95%
    18:00 -6°C° 0.8 mm 2 m/S 725 mmHg 96%
    19:00 -6°C° 0.8 mm 2 m/S 724 mmHg 96%
    20:00 -6°C° 0.6 mm 2 m/S 724 mmHg 96%
    21:00 -6°C° 0.6 mm 2 m/S 725 mmHg 96%
    22:00 -6°C° 0.6 mm 2 m/S 725 mmHg 96%
    23:00 -7°C° 0.6 mm 3 m/S 725 mmHg 95%

    Morgen, 27 Februar, Donnerstag

    Zeit Temperatur Niederschläge Wind Luftdruck Luftfeuchtigkeit
    00:00 -8°C° 0.6 mm 4 m/S 725 mmHg 95%
    01:00 -8°C° 0.6 mm 4 m/S 726 mmHg 94%
    02:00 -7°C° 0.1 mm 4 m/S 726 mmHg 92%
    03:00 -7°C° 0.1 mm 5 m/S 727 mmHg 90%
    04:00 -6°C° 0.1 mm 5 m/S 728 mmHg 88%
    05:00 -7°C° 0 mm 5 m/S 729 mmHg 88%
    06:00 -8°C° 0 mm 5 m/S 730 mmHg 87%
    07:00 -10°C° 0 mm 5 m/S 731 mmHg 87%
    08:00 -10°C° 0 mm 5 m/S 731 mmHg 86%
    09:00 -9°C° 0 mm 6 m/S 732 mmHg 84%
    10:00 -9°C° 0 mm 6 m/S 733 mmHg 82%
    11:00 -7°C° 0 mm 5 m/S 733 mmHg 79%
    12:00 -6°C° 0 mm 5 m/S 733 mmHg 77%
    13:00 -4°C° 0 mm 4 m/S 734 mmHg 74%
    14:00 -4°C° 0 mm 4 m/S 734 mmHg 76%
    15:00 -4°C° 0 mm 3 m/S 734 mmHg 79%
    16:00 -2°C° 0 mm 3 m/S 735 mmHg 81%
    17:00 -4°C° 0 mm 3 m/S 735 mmHg 84%
    18:00 -5°C° 0 mm 3 m/S 735 mmHg 87%
    19:00 -5°C° 0 mm 3 m/S 736 mmHg 90%
    20:00 -6°C° 0 mm 3 m/S 736 mmHg 91%
    21:00 -6°C° 0 mm 3 m/S 736 mmHg 92%
    22:00 -5°C° 0 mm 2 m/S 736 mmHg 92%
    23:00 -5°C° 0 mm 2 m/S 737 mmHg 93%

    übermorgen, 28 Februar, Freitag

    Zeit Temperatur Niederschläge Wind Luftdruck Luftfeuchtigkeit
    00:00 -5°C° 0 mm 2 m/S 737 mmHg 94%
    01:00 -6°C° 0 mm 2 m/S 737 mmHg 94%
    02:00 -4°C° 0 mm 2 m/S 737 mmHg 95%
    03:00 -2°C° 0 mm 3 m/S 737 mmHg 96%
    04:00 -1°C° 0 mm 3 m/S 738 mmHg 97%
    05:00 -1°C° 0 mm 3 m/S 738 mmHg 95%
    06:00 -1°C° 0 mm 3 m/S 738 mmHg 93%
    07:00 -1°C° 0 mm 3 m/S 738 mmHg 92%
    08:00 -2°C° 0.2 mm 4 m/S 738 mmHg 94%
    09:00 -2°C° 0.2 mm 4 m/S 738 mmHg 96%
    10:00 -2°C° 0.2 mm 4 m/S 738 mmHg 98%
    11:00 -2°C° 0.2 mm 4 m/S 738 mmHg 98%
    12:00 -1°C° 0.2 mm 4 m/S 738 mmHg 98%
    13:00 -1°C° 0.2 mm 4 m/S 738 mmHg 98%
    14:00 -1°C° 0 mm 4 m/S 738 mmHg 97%
    15:00 0°C° 0 mm 3 m/S 738 mmHg 96%
    16:00 0°C° 0 mm 3 m/S 739 mmHg 95%
    17:00 +1°C° 0 mm 2 m/S 739 mmHg 94%
    18:00 -1°C° 0 mm 2 m/S 739 mmHg 93%
    19:00 -1°C° 0 mm 2 m/S 740 mmHg 92%
    20:00 -1°C° 0 mm 2 m/S 740 mmHg 92%
    21:00 -1°C° 0 mm 2 m/S 740 mmHg 92%
    22:00 0°C° 0 mm 3 m/S 741 mmHg 92%
    23:00 -1°C° 0 mm 3 m/S 741 mmHg 91%

    29 Februar, Samstag

    Zeit Temperatur Niederschläge Wind Luftdruck Luftfeuchtigkeit
    00:00 -1°C° 0 mm 3 m/S 741 mmHg 91%
    01:00 -2°C° 0 mm 3 m/S 741 mmHg 91%
    02:00 -2°C° 0 mm 3 m/S 741 mmHg 90%
    03:00 -4°C° 0 mm 3 m/S 740 mmHg 89%
    04:00 -5°C° 0 mm 3 m/S 740 mmHg 89%
    05:00 -4°C° 0 mm 3 m/S 740 mmHg 88%
    06:00 -2°C° 0 mm 3 m/S 740 mmHg 87%
    07:00 -2°C° 0 mm 3 m/S 740 mmHg 86%
    08:00 -1°C° 0 mm 3 m/S 739 mmHg 86%
    09:00 -1°C° 0 mm 3 m/S 739 mmHg 86%
    10:00 -2°C° 0 mm 4 m/S 739 mmHg 86%
    11:00 -2°C° 0 mm 4 m/S 738 mmHg 84%
    12:00 -1°C° 0 mm 4 m/S 738 mmHg 81%
    13:00 0°C° 0 mm 4 m/S 738 mmHg 79%
    14:00 -1°C° 0 mm 5 m/S 737 mmHg 77%
    15:00 -1°C° 0 mm 5 m/S 737 mmHg 74%
    16:00 -2°C° 0 mm 5 m/S 736 mmHg 72%
    17:00 -4°C° 0 mm 5 m/S 736 mmHg 76%
    18:00 -5°C° 0 mm 5 m/S 736 mmHg 79%
    19:00 -6°C° 0 mm 5 m/S 736 mmHg 83%
    20:00 -7°C° 0 mm 4 m/S 736 mmHg 85%
    21:00 -7°C° 0 mm 4 m/S 736 mmHg 87%
    22:00 -8°C° 0 mm 4 m/S 736 mmHg 89%
    23:00 -8°C° 0 mm 4 m/S 736 mmHg 90%

    1 März, Sonntag

    Zeit Temperatur Niederschläge Wind Luftdruck Luftfeuchtigkeit
    00:00 -7°C° 0 mm 3 m/S 736 mmHg 90%
    01:00 -7°C° 0 mm 3 m/S 736 mmHg 90%
    02:00 -7°C° 0 mm 3 m/S 736 mmHg 91%
    03:00 -7°C° 0 mm 3 m/S 736 mmHg 92%
    04:00 -7°C° 0 mm 3 m/S 737 mmHg 92%
    05:00 -7°C° 0 mm 3 m/S 737 mmHg 93%
    06:00 -8°C° 0 mm 3 m/S 737 mmHg 93%
    07:00 -7°C° 0 mm 2 m/S 738 mmHg 94%
    08:00 -6°C° 0 mm 3 m/S 738 mmHg 91%
    09:00 -5°C° 0 mm 3 m/S 739 mmHg 89%
    10:00 -2°C° 0 mm 3 m/S 739 mmHg 87%
    11:00 -2°C° 0 mm 3 m/S 739 mmHg 86%
    12:00 -1°C° 0 mm 3 m/S 740 mmHg 86%
    13:00 -1°C° 0 mm 3 m/S 740 mmHg 86%
    14:00 -1°C° 0 mm 2 m/S 740 mmHg 87%
    15:00 -1°C° 0 mm 2 m/S 740 mmHg 88%
    16:00 +1°C° 0 mm 1 m/S 740 mmHg 89%
    17:00 0°C° 0 mm 1 m/S 741 mmHg 90%
    18:00 -1°C° 0 mm 1 m/S 741 mmHg 91%
    19:00 -2°C° 0 mm 1 m/S 741 mmHg 91%
    20:00 -3°C° 0 mm 1 m/S 741 mmHg 92%
    21:00 -3°C° 0 mm 1 m/S 742 mmHg 93%
    22:00 -4°C° 0 mm 1 m/S 742 mmHg 93%
    23:00 -4°C° 0 mm 1 m/S 742 mmHg 93%

    2 März, Montag

    Zeit Temperatur Niederschläge Wind Luftdruck Luftfeuchtigkeit
    00:00 -6°C° 0 mm 1 m/S 742 mmHg 93%
    01:00 -6°C° 0 mm 1 m/S 742 mmHg 93%
    02:00 -8°C° 0 mm 2 m/S 742 mmHg 93%
    03:00 -8°C° 0 mm 2 m/S 743 mmHg 94%
    04:00 -8°C° 0 mm 2 m/S 743 mmHg 94%
    05:00 -8°C° 0 mm 2 m/S 743 mmHg 94%
    06:00 -9°C° 0 mm 2 m/S 743 mmHg 94%
    07:00 -8°C° 0 mm 1 m/S 743 mmHg 94%
    08:00 -6°C° 0 mm 1 m/S 744 mmHg 92%
    09:00 -4°C° 0 mm 1 m/S 744 mmHg 90%
    10:00 -2°C° 0 mm 1 m/S 744 mmHg 88%
    11:00 -1°C° 0 mm 1 m/S 744 mmHg 88%
    12:00 0°C° 0 mm 1 m/S 744 mmHg 88%
    13:00 +1°C° 0 mm 1 m/S 744 mmHg 88%
    14:00 +1°C° 0 mm 1 m/S 744 mmHg 89%
    15:00 +1°C° 0 mm 1 m/S 745 mmHg 90%
    16:00 +1°C° 0 mm 1 m/S 745 mmHg 90%
    17:00 0°C° 0 mm 1 m/S 745 mmHg 91%
    18:00 -2°C° 0 mm 1 m/S 745 mmHg 92%
    19:00 -3°C° 0 mm 1 m/S 745 mmHg 92%
    20:00 -4°C° 0 mm 1 m/S 746 mmHg 92%
    21:00 -5°C° 0 mm 0 m/S 746 mmHg 92%
    22:00 -5°C° 0 mm 0 m/S 746 mmHg 91%
    23:00 -4°C° 0 mm 1 m/S 746 mmHg 91%
    Mehr zeigen